Miscellaneous Local Product
Issued by NWS Hastings, NE

Home | Current Version | Previous Version | Text Only | Print | Product List | Glossary On
Versions: 1 2 3 4 5 6 7 8 9 10 11 12 13 14 15 16 17 18 19 20 21 22 23 24 25 26 27 28 29 30 31 32 33 34 35 36 37 38 39 40 41 42 43 44 45 46 47 48 49 50
000
AXUS43 KGID 050002
MISGRI

GID CWA HOURLY WEATHER ROUNDUP
NATIONAL WEATHER SERVICE HASTINGS NE
600 PM CST WED MAR 04 2015

NOTE: "FAIR" INDICATES FEW OR NO CLOUDS BELOW 12,000 FEET WITH NO
SIGNIFICANT WEATHER AND/OR OBSTRUCTIONS TO VISIBILITY.

...SOUTH CENTRAL NEBRASKA...

CITY           SKY/WX    TMP DP  RH WIND       PRES   REMARKS
GRAND ISLAND   CLEAR     26   2  35 N13       30.29R WCI  15
HASTINGS       CLEAR     27   1  32 N7        30.27R WCI  19
KEARNEY        CLEAR     27   1  33 N10       30.26R WCI  17
ORD            CLEAR     23  -5  29 N16       30.26R WCI  10
YORK           CLEAR     27   1  33 N9        30.29R WCI  17
AURORA         CLEAR     27   2  34 N12       30.27R WCI  17
LEXINGTON      CLEAR     29   2  32 N13       30.23R WCI  18
HOLDREGE       CLEAR     27   6  40 N9        30.23R WCI  18
HEBRON         PTCLDY    28   0  29 N6        30.31R WCI  22

...NEBRASKA PANHANDLE...

CITY           SKY/WX    TMP DP  RH WIND       PRES   REMARKS
CHADRON        CLEAR     18   7  62 W12       30.20S WCI   5
ALLIANCE       CLEAR     21  -1  38 NW20      30.15R WCI   6
SCOTTSBLUFF    CLEAR     25   1  35 NW15      30.17R WCI  13
SIDNEY         CLEAR     25   1  35 NW17      30.14R WCI  12

...WESTERN AND NORTH CENTRAL NEBRASKA...

CITY           SKY/WX    TMP DP  RH WIND       PRES   REMARKS
VALENTINE      CLEAR     15   2  56 NW14      30.26  WCI   0
AINSWORTH      CLEAR     15   2  57 N14       30.26R WCI   0
ONEILL         CLEAR     17  -1  45 NW21      30.30R WCI   0
BROKEN BOW     CLEAR     25  -3  29 N17       30.23R WCI  12
IMPERIAL         N/A     26   5  40 NW10      30.20S WCI  16
NORTH PLATTE   PTCLDY    27  -2  28 NW23      30.21R WCI  12
MCCOOK         CLEAR     31   1  28 NW15      30.24R WCI  20

...EASTERN NEBRASKA...

CITY           SKY/WX    TMP DP  RH WIND       PRES   REMARKS
NORFOLK        CLEAR     19  -3  38 NW22      30.30R WCI   2
SO SIOUX CITY  PTCLDY    16  -3  43 N18       30.35R WCI   0
TEKAMAH        CLEAR     21  -3  35 N20       30.35R WCI   6
COLUMBUS       CLEAR     21  -6  30 N17G23    30.32R WCI   7
ALBION         CLEAR     22  -5  30 N13G22    30.28R WCI  10
OMAHA EPPLEY   PTCLDY    23  -2  33 N16       30.34R WCI  10
OFFUTT AFB     CLEAR     24  -3  30 N10G21    30.32R WCI  13
MILLARD        CLEAR     26  -2  29 N8G16     30.33R WCI  17
LINCOLN        CLEAR     26  -3  28 N15       30.34R WCI  14
NEBRASKA CITY  CLEAR     27  -9  20 N15G21    30.29R WCI  15
BEATRICE       CLEAR     28   2  32 N15       30.30R WCI  16
FALLS CITY     PTCLDY    28   0  29 N12       30.30R WCI  18

...NORTHERN KANSAS...

CITY           SKY/WX    TMP DP  RH WIND       PRES   REMARKS
GOODLAND       CLEAR     27   3  35 NW12      30.21R WCI  17
HILL CITY      CLEAR     31   2  29 N15       30.28R WCI  20
NORTON         PTCLDY    28  -2  26 NW10      30.25R WCI  19
PHILLIPSBURG   CLEAR     32   9  37 NE3       30.29R
SMITH CENTER   CLEAR     28   3  34 N12       30.30R WCI  18
BELOIT         CLEAR     30   1  29 N9        30.32R WCI  22
HAYS           PTCLDY    30   1  29 N12       30.29S WCI  21
RUSSELL        PTCLDY    31   3  30 N14       30.28R WCI  21
CONCORDIA      PTCLDY    29   5  36 N10       30.32R WCI  20
SALINA         CLOUDY    32   2  27 N13       30.32R WCI  22
TOPEKA         CLOUDY    30   6  36 N8        30.33R WCI  22



USA.gov is the U.S. government's official web portal to all federal, state and local government web resources and services.